When you browse on this site, cookies collect data to enhance your experience and personalize the content and advertising you see.
Visit our Privacy Policy to learn more. By continuing to use the site, you agree to this use of cookies and data.
  • In Romania
  • List of Countries
  • For 7 days
  • Water Temperature
  • Weather Map
  • Weather Widgets
  • user-avatar
    Login

    Hourly Weather Bandar Abbas

    Today, 25 August, Sunday

    Time Temperature Precipitation Wind Pressure Humidity
    00:00 +32°C° 0 mm 2 mps 752 mmHg 75%
    01:00 +31°C° 0 mm 1 mps 752 mmHg 79%
    02:00 +31°C° 0 mm 2 mps 752 mmHg 76%
    03:00 +32°C° 0 mm 2 mps 752 mmHg 72%
    04:00 +33°C° 0 mm 3 mps 751 mmHg 68%
    05:00 +34°C° 0 mm 2 mps 752 mmHg 61%
    06:00 +35°C° 0 mm 2 mps 752 mmHg 55%
    07:00 +36°C° 0 mm 2 mps 752 mmHg 49%
    08:00 +37°C° 0 mm 1 mps 752 mmHg 42%
    09:00 +40°C° 0 mm 1 mps 752 mmHg 35%
    10:00 +42°C° 0 mm 1 mps 752 mmHg 28%
    11:00 +42°C° 0 mm 2 mps 752 mmHg 27%
    12:00 +44°C° 0 mm 3 mps 751 mmHg 25%
    13:00 +44°C° 0 mm 4 mps 751 mmHg 24%
    14:00 +44°C° 0 mm 4 mps 750 mmHg 25%
    15:00 +45°C° 0 mm 5 mps 750 mmHg 26%
    16:00 +45°C° 0 mm 5 mps 750 mmHg 27%
    17:00 +42°C° 0 mm 5 mps 750 mmHg 32%
    18:00 +40°C° 0 mm 4 mps 750 mmHg 37%
    19:00 +37°C° 0 mm 3 mps 750 mmHg 42%
    20:00 +36°C° 0 mm 3 mps 751 mmHg 46%
    21:00 +35°C° 0 mm 2 mps 751 mmHg 50%
    22:00 +34°C° 0 mm 2 mps 752 mmHg 54%
    23:00 +34°C° 0 mm 2 mps 752 mmHg 56%

    Tomorrow, 26 August, Monday

    Time Temperature Precipitation Wind Pressure Humidity
    00:00 +33°C° 0 mm 1 mps 752 mmHg 58%
    01:00 +32°C° 0 mm 1 mps 752 mmHg 60%
    02:00 +32°C° 0 mm 1 mps 752 mmHg 60%
    03:00 +31°C° 0 mm 2 mps 751 mmHg 60%
    04:00 +31°C° 0 mm 2 mps 751 mmHg 60%
    05:00 +32°C° 0 mm 2 mps 752 mmHg 55%
    06:00 +34°C° 0 mm 2 mps 752 mmHg 49%
    07:00 +36°C° 0 mm 2 mps 752 mmHg 43%
    08:00 +37°C° 0 mm 1 mps 752 mmHg 38%
    09:00 +40°C° 0 mm 1 mps 752 mmHg 32%
    10:00 +42°C° 0 mm 1 mps 752 mmHg 26%
    11:00 +42°C° 0 mm 2 mps 752 mmHg 24%
    12:00 +43°C° 0 mm 2 mps 751 mmHg 22%
    13:00 +45°C° 0 mm 3 mps 751 mmHg 20%
    14:00 +45°C° 0 mm 4 mps 750 mmHg 19%
    15:00 +46°C° 0 mm 5 mps 750 mmHg 18%
    16:00 +46°C° 0 mm 5 mps 749 mmHg 17%
    17:00 +42°C° 0 mm 5 mps 749 mmHg 23%
    18:00 +40°C° 0 mm 4 mps 749 mmHg 29%
    19:00 +36°C° 0 mm 3 mps 750 mmHg 36%
    20:00 +35°C° 0 mm 3 mps 750 mmHg 41%
    21:00 +35°C° 0 mm 3 mps 751 mmHg 46%
    22:00 +34°C° 0 mm 3 mps 752 mmHg 50%
    23:00 +34°C° 0 mm 3 mps 752 mmHg 49%

    Day after tomorrow, 27 August, Tuesday

    Time Temperature Precipitation Wind Pressure Humidity
    00:00 +34°C° 0 mm 3 mps 752 mmHg 47%
    01:00 +33°C° 0 mm 3 mps 752 mmHg 45%
    02:00 +32°C° 0 mm 2 mps 752 mmHg 44%
    03:00 +31°C° 0 mm 2 mps 751 mmHg 43%
    04:00 +31°C° 0 mm 2 mps 751 mmHg 41%
    05:00 +32°C° 0 mm 2 mps 751 mmHg 40%
    06:00 +34°C° 0 mm 2 mps 752 mmHg 39%
    07:00 +35°C° 0 mm 2 mps 752 mmHg 38%
    08:00 +37°C° 0 mm 2 mps 752 mmHg 31%
    09:00 +40°C° 0 mm 1 mps 752 mmHg 25%
    10:00 +42°C° 0 mm 1 mps 752 mmHg 18%
    11:00 +44°C° 0 mm 1 mps 752 mmHg 16%
    12:00 +46°C° 0 mm 2 mps 751 mmHg 13%
    13:00 +47°C° 0 mm 2 mps 751 mmHg 11%
    14:00 +47°C° 0 mm 3 mps 750 mmHg 10%
    15:00 +47°C° 0 mm 3 mps 749 mmHg 10%
    16:00 +48°C° 0 mm 4 mps 749 mmHg 9%
    17:00 +45°C° 0 mm 4 mps 749 mmHg 12%
    18:00 +43°C° 0 mm 4 mps 749 mmHg 14%
    19:00 +40°C° 0 mm 5 mps 749 mmHg 17%
    20:00 +39°C° 0 mm 5 mps 750 mmHg 29%
    21:00 +36°C° 0 mm 5 mps 750 mmHg 41%
    22:00 +34°C° 0 mm 5 mps 751 mmHg 53%
    23:00 +33°C° 0 mm 4 mps 751 mmHg 49%

    28 August, Wednesday

    Time Temperature Precipitation Wind Pressure Humidity
    00:00 +33°C° 0 mm 3 mps 751 mmHg 44%
    01:00 +33°C° 0 mm 3 mps 751 mmHg 39%
    02:00 +31°C° 0 mm 2 mps 750 mmHg 39%
    03:00 +31°C° 0 mm 2 mps 750 mmHg 39%
    04:00 +30°C° 0 mm 2 mps 750 mmHg 38%
    05:00 +31°C° 0 mm 1 mps 751 mmHg 35%
    06:00 +32°C° 0 mm 1 mps 751 mmHg 32%
    07:00 +31°C° 0 mm 0 mps 751 mmHg 29%
    08:00 +36°C° 0 mm 1 mps 752 mmHg 24%
    09:00 +40°C° 0 mm 2 mps 752 mmHg 19%
    10:00 +43°C° 0 mm 2 mps 752 mmHg 14%
    11:00 +45°C° 0 mm 2 mps 751 mmHg 13%
    12:00 +46°C° 0 mm 3 mps 751 mmHg 11%
    13:00 +47°C° 0 mm 3 mps 750 mmHg 9%
    14:00 +47°C° 0 mm 3 mps 750 mmHg 9%
    15:00 +47°C° 0 mm 3 mps 749 mmHg 9%
    16:00 +48°C° 0 mm 4 mps 749 mmHg 9%
    17:00 +44°C° 0 mm 4 mps 749 mmHg 12%
    18:00 +42°C° 0 mm 4 mps 749 mmHg 15%
    19:00 +38°C° 0 mm 4 mps 749 mmHg 18%
    20:00 +38°C° 0 mm 3 mps 750 mmHg 20%
    21:00 +37°C° 0 mm 3 mps 751 mmHg 22%
    22:00 +36°C° 0 mm 2 mps 751 mmHg 23%
    23:00 +35°C° 0 mm 2 mps 751 mmHg 25%

    29 August, Thursday

    Time Temperature Precipitation Wind Pressure Humidity
    00:00 +34°C° 0 mm 2 mps 751 mmHg 27%
    01:00 +32°C° 0 mm 1 mps 751 mmHg 29%
    02:00 +31°C° 0 mm 1 mps 751 mmHg 31%
    03:00 +31°C° 0 mm 1 mps 751 mmHg 32%
    04:00 +30°C° 0 mm 1 mps 751 mmHg 33%
    05:00 +32°C° 0 mm 2 mps 752 mmHg 28%
    06:00 +34°C° 0 mm 2 mps 752 mmHg 24%
    07:00 +36°C° 0 mm 2 mps 752 mmHg 19%
    08:00 +39°C° 0 mm 2 mps 752 mmHg 16%
    09:00 +42°C° 0 mm 1 mps 752 mmHg 14%
    10:00 +44°C° 0 mm 1 mps 752 mmHg 11%
    11:00 +45°C° 0 mm 1 mps 752 mmHg 10%
    12:00 +47°C° 0 mm 2 mps 751 mmHg 9%
    13:00 +48°C° 0 mm 2 mps 751 mmHg 8%
    14:00 +48°C° 0 mm 2 mps 750 mmHg 8%
    15:00 +50°C° 0 mm 3 mps 749 mmHg 8%
    16:00 +50°C° 0 mm 3 mps 749 mmHg 8%
    17:00 +47°C° 0 mm 4 mps 749 mmHg 10%
    18:00 +45°C° 0 mm 5 mps 749 mmHg 13%
    19:00 +41°C° 0 mm 6 mps 749 mmHg 16%
    20:00 +40°C° 0 mm 5 mps 750 mmHg 16%
    21:00 +40°C° 0 mm 4 mps 750 mmHg 15%
    22:00 +38°C° 0 mm 3 mps 751 mmHg 15%
    23:00 +37°C° 0 mm 3 mps 751 mmHg 20%

    30 August, Friday

    Time Temperature Precipitation Wind Pressure Humidity
    00:00 +36°C° 0 mm 4 mps 751 mmHg 24%
    01:00 +35°C° 0 mm 4 mps 750 mmHg 28%
    02:00 +34°C° 0 mm 4 mps 750 mmHg 29%
    03:00 +33°C° 0 mm 3 mps 750 mmHg 30%
    04:00 +33°C° 0 mm 3 mps 750 mmHg 31%
    05:00 +34°C° 0 mm 2 mps 751 mmHg 29%
    06:00 +34°C° 0 mm 2 mps 751 mmHg 26%
    07:00 +35°C° 0 mm 2 mps 751 mmHg 24%
    08:00 +39°C° 0 mm 2 mps 751 mmHg 20%
    09:00 +42°C° 0 mm 2 mps 751 mmHg 15%
    10:00 +46°C° 0 mm 2 mps 751 mmHg 11%
    11:00 +47°C° 0 mm 2 mps 751 mmHg 10%
    12:00 +49°C° 0 mm 2 mps 750 mmHg 9%
    13:00 +50°C° 0 mm 2 mps 750 mmHg 8%
    14:00 +51°C° 0 mm 3 mps 749 mmHg 8%
    15:00 +51°C° 0 mm 4 mps 748 mmHg 8%
    16:00 +52°C° 0 mm 5 mps 748 mmHg 8%
    17:00 +48°C° 0 mm 5 mps 748 mmHg 11%
    18:00 +45°C° 0 mm 5 mps 748 mmHg 13%
    19:00 +42°C° 0 mm 4 mps 748 mmHg 16%
    20:00 +41°C° 0 mm 4 mps 748 mmHg 16%
    21:00 +39°C° 0 mm 3 mps 749 mmHg 17%
    22:00 +38°C° 0 mm 3 mps 750 mmHg 18%
    23:00 +37°C° 0 mm 2 mps 749 mmHg 17%
    Show more